TimeCST,TemperatureF,Dew PointF,Humidity,Sea Level PressureIn,VisibilityMPH,Wind Direction,Wind SpeedMPH,Gust SpeedMPH,PrecipitationIn,Events,Conditions,WindDirDegrees,DateUTC
12:53 AM,18.0,9.0,68,30.06,10.0,West,8.1,-,N/A,,Clear,270,2012-12-11 06:53:00
1:53 AM,15.1,8.1,74,30.07,10.0,SW,5.8,-,N/A,,Partly Cloudy,230,2012-12-11 07:53:00
2:53 AM,19.9,10.0,65,30.07,10.0,West,5.8,-,N/A,,Overcast,260,2012-12-11 08:53:00
3:53 AM,18.0,10.9,74,30.07,10.0,SW,4.6,-,N/A,,Mostly Cloudy,220,2012-12-11 09:53:00
4:53 AM,19.9,12.9,74,30.08,10.0,WNW,12.7,-,N/A,,Clear,290,2012-12-11 10:53:00
5:53 AM,17.1,10.9,77,30.10,10.0,WNW,10.4,-,N/A,,Clear,290,2012-12-11 11:53:00
6:53 AM,14.0,10.0,84,30.12,10.0,WSW,6.9,-,N/A,,Clear,240,2012-12-11 12:53:00
7:53 AM,12.0,8.1,84,30.14,10.0,WSW,10.4,-,N/A,,Clear,250,2012-12-11 13:53:00
8:53 AM,17.1,12.0,81,30.14,10.0,WSW,8.1,-,N/A,,Clear,250,2012-12-11 14:53:00
9:53 AM,23.0,14.0,68,30.14,10.0,WSW,9.2,-,N/A,,Clear,240,2012-12-11 15:53:00
10:53 AM,33.1,16.0,50,30.12,10.0,West,12.7,-,N/A,,Clear,260,2012-12-11 16:53:00
11:53 AM,39.0,16.0,39,30.09,10.0,West,12.7,-,N/A,,Clear,260,2012-12-11 17:53:00
12:53 PM,43.0,10.0,26,30.05,10.0,WSW,12.7,-,N/A,,Clear,250,2012-12-11 18:53:00
1:53 PM,45.0,8.1,22,30.01,10.0,WSW,12.7,-,N/A,,Clear,250,2012-12-11 19:53:00
2:53 PM,45.0,10.0,24,29.98,10.0,SW,10.4,20.7,N/A,,Clear,230,2012-12-11 20:53:00
3:53 PM,45.0,9.0,23,29.97,10.0,WSW,11.5,-,N/A,,Clear,240,2012-12-11 21:53:00
4:53 PM,43.0,8.1,24,29.96,10.0,SW,8.1,-,N/A,,Clear,220,2012-12-11 22:53:00
5:53 PM,34.0,5.0,30,29.98,10.0,South,6.9,-,N/A,,Clear,190,2012-12-11 23:53:00
6:53 PM,30.0,5.0,35,30.00,10.0,SSW,5.8,-,N/A,,Clear,210,2012-12-12 00:53:00
7:53 PM,30.0,7.0,38,30.00,10.0,SW,8.1,-,N/A,,Clear,220,2012-12-12 01:53:00
8:53 PM,30.9,12.0,46,30.00,10.0,SW,9.2,-,N/A,,Clear,220,2012-12-12 02:53:00